TimeCST,TemperatureF,Dew PointF,Humidity,Sea Level PressureIn,VisibilityMPH,Wind Direction,Wind SpeedMPH,Gust SpeedMPH,PrecipitationIn,Events,Conditions,WindDirDegrees,DateUTC
12:15 AM,34.7,31.1,87,29.83,10.0,SSE,10.4,-,N/A,,Clear,160,2013-12-29 06:15:00
12:35 AM,33.8,30.9,89,29.83,10.0,South,6.9,-,N/A,,Clear,170,2013-12-29 06:35:00
12:55 AM,32.5,30.2,91,29.82,10.0,South,5.8,-,N/A,,Clear,190,2013-12-29 06:55:00
1:15 AM,34.0,30.9,89,29.82,10.0,SSW,8.1,-,N/A,,Clear,210,2013-12-29 07:15:00
1:35 AM,34.0,30.6,87,29.82,10.0,SSW,8.1,-,N/A,,Clear,210,2013-12-29 07:35:00
1:55 AM,33.8,30.2,87,29.82,10.0,SSW,6.9,-,N/A,,Clear,210,2013-12-29 07:55:00
2:15 AM,34.0,30.2,86,29.83,10.0,SW,8.1,-,N/A,,Clear,220,2013-12-29 08:15:00
2:35 AM,34.7,30.6,85,29.83,10.0,WSW,9.2,-,N/A,,Clear,240,2013-12-29 08:35:00
2:55 AM,34.2,31.5,90,29.85,10.0,West,11.5,-,N/A,,Clear,280,2013-12-29 08:55:00
3:15 AM,32.9,32.0,96,29.85,10.0,WNW,13.8,23.0,N/A,,Mostly Cloudy,300,2013-12-29 09:15:00
3:35 AM,32.4,32.0,99,29.85,7.0,WNW,17.3,23.0,N/A,,Overcast,300,2013-12-29 09:35:00
3:55 AM,32.0,32.0,100,29.85,7.0,West,19.6,24.2,N/A,,Overcast,280,2013-12-29 09:55:00
4:15 AM,31.6,31.6,100,29.85,5.0,WNW,15.0,21.9,N/A,,Overcast,290,2013-12-29 10:15:00
4:35 AM,29.8,29.8,100,29.86,4.0,WNW,21.9,25.3,N/A,,Overcast,290,2013-12-29 10:35:00
4:55 AM,28.2,28.2,100,29.87,2.5,WNW,20.7,26.5,N/A,,Overcast,300,2013-12-29 10:55:00
5:15 AM,26.6,26.6,100,29.88,2.5,WNW,17.3,24.2,N/A,,Overcast,300,2013-12-29 11:15:00
5:35 AM,25.7,25.7,100,29.89,3.0,WNW,18.4,29.9,N/A,,Overcast,300,2013-12-29 11:35:00
5:55 AM,24.6,24.6,100,29.89,2.5,WNW,19.6,27.6,N/A,,Overcast,290,2013-12-29 11:55:00
6:15 AM,24.3,24.3,100,29.90,2.5,WNW,18.4,28.8,N/A,,Overcast,300,2013-12-29 12:15:00
6:35 AM,23.9,23.9,100,29.91,4.0,WNW,19.6,27.6,N/A,,Overcast,300,2013-12-29 12:35:00
6:55 AM,23.7,23.7,100,29.91,4.0,WNW,19.6,25.3,N/A,,Overcast,290,2013-12-29 12:55:00
7:15 AM,23.9,23.9,100,29.93,4.0,WNW,16.1,26.5,N/A,,Overcast,300,2013-12-29 13:15:00
7:35 AM,23.9,23.9,100,29.94,3.0,WNW,18.4,23.0,N/A,,Overcast,300,2013-12-29 13:35:00
7:55 AM,23.9,23.9,100,29.95,3.0,WNW,16.1,25.3,N/A,,Overcast,300,2013-12-29 13:55:00
8:15 AM,23.9,23.5,99,29.96,4.0,WNW,16.1,24.2,N/A,,Overcast,300,2013-12-29 14:15:00
8:35 AM,23.9,23.2,97,29.96,5.0,WNW,19.6,24.2,N/A,,Overcast,290,2013-12-29 14:35:00
8:55 AM,23.7,23.0,97,29.98,5.0,WNW,17.3,25.3,N/A,,Overcast,290,2013-12-29 14:55:00
9:15 AM,23.9,23.0,96,29.99,7.0,WNW,17.3,21.9,N/A,,Overcast,290,2013-12-29 15:15:00
9:35 AM,23.9,23.0,96,30.00,7.0,WNW,15.0,-,N/A,,Overcast,300,2013-12-29 15:35:00
9:55 AM,24.8,23.0,93,30.01,10.0,WNW,19.6,24.2,N/A,,Overcast,300,2013-12-29 15:55:00
10:15 AM,24.4,23.0,94,30.02,7.0,WNW,13.8,25.3,N/A,,Overcast,300,2013-12-29 16:15:00
10:35 AM,23.9,22.8,96,30.03,5.0,NW,15.0,27.6,N/A,,Overcast,310,2013-12-29 16:35:00
10:55 AM,23.5,22.3,95,30.03,7.0,NW,15.0,25.3,N/A,,Overcast,310,2013-12-29 16:55:00
11:15 AM,23.2,21.6,94,30.03,10.0,WNW,20.7,26.5,N/A,,Overcast,300,2013-12-29 17:15:00
11:35 AM,23.0,20.5,90,30.03,10.0,WNW,19.6,25.3,N/A,,Overcast,300,2013-12-29 17:35:00
11:55 AM,22.6,19.9,89,30.04,10.0,NW,17.3,26.5,N/A,,Overcast,310,2013-12-29 17:55:00
12:15 PM,22.5,19.4,88,30.04,10.0,NW,18.4,21.9,N/A,,Overcast,310,2013-12-29 18:15:00
12:35 PM,22.1,19.0,88,30.05,10.0,NW,18.4,25.3,N/A,,Overcast,310,2013-12-29 18:35:00
12:55 PM,21.7,18.5,87,30.05,10.0,WNW,19.6,25.3,N/A,,Overcast,300,2013-12-29 18:55:00
1:15 PM,20.8,17.4,87,30.06,10.0,WNW,18.4,26.5,N/A,,Overcast,300,2013-12-29 19:15:00
1:35 PM,20.3,16.7,86,30.07,10.0,WNW,20.7,27.6,N/A,,Overcast,290,2013-12-29 19:35:00
1:55 PM,19.4,15.8,86,30.08,10.0,WNW,21.9,28.8,N/A,,Overcast,300,2013-12-29 19:55:00
2:15 PM,18.9,15.3,86,30.09,10.0,WNW,19.6,27.6,N/A,,Overcast,300,2013-12-29 20:15:00
2:35 PM,18.3,14.4,85,30.09,10.0,WNW,20.7,27.6,N/A,,Overcast,300,2013-12-29 20:35:00
2:55 PM,18.0,14.2,85,30.10,10.0,WNW,18.4,24.2,N/A,,Overcast,300,2013-12-29 20:55:00
3:15 PM,18.1,14.2,84,30.11,10.0,WNW,18.4,24.2,N/A,,Overcast,300,2013-12-29 21:15:00
3:35 PM,17.6,13.8,85,30.13,10.0,NW,18.4,26.5,N/A,,Overcast,310,2013-12-29 21:35:00
3:55 PM,17.1,13.1,84,30.14,10.0,WNW,15.0,27.6,N/A,Snow,Light Snow,300,2013-12-29 21:55:00
4:15 PM,16.3,13.1,87,30.14,7.0,WNW,19.6,24.2,N/A,Snow,Light Snow,290,2013-12-29 22:15:00
4:35 PM,15.4,12.6,88,30.15,5.0,WNW,20.7,24.2,N/A,Snow,Light Snow,290,2013-12-29 22:35:00
4:55 PM,14.4,11.7,89,30.16,5.0,WNW,17.3,23.0,N/A,Snow,Light Snow,290,2013-12-29 22:55:00
5:15 PM,13.6,10.9,89,30.17,7.0,WNW,18.4,21.9,N/A,Snow,Light Snow,290,2013-12-29 23:15:00
5:35 PM,13.1,10.2,88,30.18,10.0,WNW,17.3,24.2,N/A,Snow,Light Snow,290,2013-12-29 23:35:00
5:55 PM,12.4,9.5,88,30.19,7.0,WNW,17.3,-,N/A,Snow,Light Snow,290,2013-12-29 23:55:00
6:15 PM,11.3,8.4,88,30.19,10.0,WNW,15.0,20.7,N/A,,Overcast,290,2013-12-30 00:15:00
6:35 PM,10.4,7.7,89,30.20,10.0,WNW,18.4,21.9,N/A,,Overcast,290,2013-12-30 00:35:00
6:55 PM,9.5,6.6,88,30.21,10.0,WNW,16.1,23.0,N/A,,Overcast,290,2013-12-30 00:55:00
7:15 PM,8.6,5.9,89,30.22,10.0,WNW,19.6,24.2,N/A,,Overcast,290,2013-12-30 01:15:00
7:35 PM,7.7,4.6,87,30.23,10.0,WNW,15.0,20.7,N/A,,Overcast,290,2013-12-30 01:35:00
7:55 PM,6.6,3.2,86,30.23,10.0,WNW,16.1,20.7,N/A,,Mostly Cloudy,290,2013-12-30 01:55:00
8:15 PM,5.9,2.3,85,30.24,10.0,WNW,13.8,19.6,N/A,,Scattered Clouds,300,2013-12-30 02:15:00
8:35 PM,5.7,2.1,85,30.24,10.0,WNW,12.7,18.4,N/A,,Clear,300,2013-12-30 02:35:00
8:55 PM,5.0,1.4,85,30.24,10.0,WNW,12.7,17.3,N/A,,Clear,300,2013-12-30 02:55:00
9:15 PM,4.8,0.9,84,30.25,10.0,WNW,12.7,19.6,N/A,,Clear,300,2013-12-30 03:15:00
9:35 PM,4.5,0.3,83,30.25,10.0,WNW,10.4,-,N/A,,Clear,300,2013-12-30 03:35:00
9:55 PM,3.9,-0.2,83,30.25,10.0,WNW,12.7,-,N/A,,Clear,300,2013-12-30 03:55:00
10:15 PM,3.7,-0.6,82,30.26,10.0,NW,10.4,-,N/A,,Clear,310,2013-12-30 04:15:00
10:35 PM,3.0,-1.3,82,30.26,10.0,NW,9.2,-,N/A,,Clear,320,2013-12-30 04:35:00
10:55 PM,2.5,-3.6,76,30.27,10.0,NW,11.5,-,N/A,,Clear,310,2013-12-30 04:55:00
11:15 PM,2.3,-4.5,73,30.27,10.0,NW,11.5,16.1,N/A,,Clear,320,2013-12-30 05:15:00
11:35 PM,1.9,-4.5,74,30.27,10.0,NW,12.7,-,N/A,,Clear,320,2013-12-30 05:35:00
11:55 PM,1.8,-4.9,74,30.28,10.0,NW,8.1,-,N/A,,Clear,320,2013-12-30 05:55:00